Location: Unspecified
(0.0000°N, 0.0000°E)
Time: 20:56:15
(UTC+02:00)

Cosmos 2219 - Visible Passes

Search period start: 30 August 2016 00:00
Search period end: 09 September 2016 00:00
Orbit: 835 x 858 km, 71.1° (Epoch: 30 August)

Date Brightness Start Highest point End Pass type
(mag) Time Alt. Az. Time Alt. Az. Time Alt. Az.
30 Aug 5.3 21:46:06 10° NW 21:50:34 24° WSW 21:55:02 10° SSW visible
31 Aug 5.3 21:32:35 10° NW 21:37:06 25° WSW 21:41:40 10° SSW visible
01 Sep 5.3 21:19:03 10° NW 21:23:39 26° WSW 21:28:17 10° SSW visible
02 Sep 5.3 21:05:33 10° NW 21:10:11 27° WSW 21:14:53 10° SSW visible
03 Sep 5.3 20:52:02 10° NW 20:56:44 28° WSW 21:01:30 10° SSW visible
04 Sep 5.4 20:38:32 10° NW 20:43:17 28° WSW 20:48:06 10° SSW visible
05 Sep 5.4 20:25:01 10° NW 20:29:50 29° WSW 20:34:42 10° SSW visible
06 Sep 3.6 07:25:39 10° S 07:31:21 72° ESE 07:36:58 10° NNE visible
07 Sep 3.6 07:12:13 10° S 07:17:53 70° ESE 07:23:31 10° NNE visible
08 Sep 3.6 06:58:46 10° S 07:04:26 68° ESE 07:10:03 10° NNE visible
